sat.trackr.live / text

‹ back to catalog

STARLINK-31169

NORAD 58809 · 2024-012Y

PAYLOAD ACTIVE UNKNOWN

§ Identity

Operator
Country
US
Launch date
2024-01-15
Launch site
AFETR
Launch vehicle
Mass (kg)
RCS (m²)

Purposes: comms

External: N2YO · Heavens-Above · Gunter

§ Orbital elements

Epoch: 2026-09-19T10:06:43.403616Z

Period
94.27 min
Inclination
43.0084°
Eccentricity
0.0002449
Mean motion
15.27576006 rev/d
Perigee alt
481.4 km
Apogee alt
484.7 km
Semi-major
6,861.2 km
B*
5.7225e-5
RAAN
151.2411°
Arg perigee
267.4914°
Mean anomaly
92.5657°
Rev number
15,086

§ Raw data

STARLINK-311691 58809U 24012Y   26262.42133569  .00001312  00000+0  57225-4 0  99912 58809  43.0084 151.2411 0002449 267.4914  92.5657 15.27576006150861

JSON: /api/v1/satellites/58809 · /tle

For live sub-satellite position, see the globe view (requires WebGL).

§ Visibility from observer

Set your observer location to see the next 7 days of passes ≥ 10°. The values pass through the URL so the page stays shareable.

No JS? Fill the form by hand. The geolocation button needs JavaScript.